Regional Weather Roundup
Issued by NWS

Home | Current Version | Previous Version | Graphics & Text | Print | Product List | Glossary On
Versions: 1 2 3 4 5 6 7 8 9 10 11 12 13 14 15 16 17 18 19 20 21 22 23 24 25 26 27 28 29 30 31 32 33 34 35 36 37 38 39 40 41 42 43 44 45 46 47 48 49 50
000
ASUS43 KLMK 061902
RWRKY
KENTUCKY REGIONAL WEATHER ROUNDUP
NATIONAL WEATHER SERVICE LOUISVILLE KY
300 PM EDT WED MAY 06 2015

NOTE "FAIR" INDICATES FEW OR NO CLOUDS BELOW 12,000 FEET
WITH NO SIGNIFICANT WEATHER AND/OR OBSTRUCTIONS TO VISIBILITY.

KYZ001>023-026-027-061>063-070>075-062000-
WESTERN AND SOUTH CENTRAL KENTUCKY

CITY           SKY/WX    TMP DP  RH WIND       PRES   REMARKS
PADUCAH        PTSUNNY   84  56  38 SE12G17   30.11F
HENDERSON      PTSUNNY   84  54  34 SE9       30.12F
OWENSBORO      SUNNY     85  57  38 S9        30.13F
HOPKINSVILLE   NOT AVBL
BOWLING GREEN  MOSUNNY   84  56  38 VRB5      30.15F
GLASGOW        NOT AVBL
$$

KYZ024-025-028>034-038-045-046-053-062000-
NORTH CENTRAL KENTUCKY

CITY           SKY/WX    TMP DP  RH WIND       PRES   REMARKS
LOUISVILLE/SDF PTSUNNY   86  54  33 SE5       30.14F
LOUISVILLE/LOU PTSUNNY   83  53  35 E6        30.15F
FORT KNOX      MOSUNNY   82  54  36 VRB3      30.14F
$$

KYZ035>037-039>044-047>052-055>060-089>105-062000-
NORTHEAST KENTUCKY

CITY           SKY/WX    TMP DP  RH WIND       PRES   REMARKS
LEXINGTON      PTSUNNY   81  56  42 NE7       30.18F
COVINGTON      PTSUNNY   83  53  35 W5        30.17F
FRANKFORT      MOSUNNY   82  55  39 VRB3      30.16F
$$

KYZ054-064>069-076>088-106>120-062000-
SOUTHEAST KENTUCKY

CITY           SKY/WX    TMP DP  RH WIND       PRES   REMARKS
JACKSON        PTSUNNY   80  55  42 CALM      30.18F
LONDON         SUNNY     84  49  29 E5        30.17F
SOMERSET       NOT AVBL
MIDDLESBORO    SUNNY     85  54  34 S6        30.16F
MONTICELLO     PTCLDY    83  58  42 N7        30.18F
$$




USA.gov is the U.S. government's official web portal to all federal, state and local government web resources and services.